RYR30TE LDZD-EDDB

Flight info

Callsign RYR30TE
Flight time 1h 23m
Altitude 35000
Route PALEZ L862 GISER L868 KULEN DCT LOKVU DCT LEGAZ DCT BEFRE T204 NUKRO NUKRO1R
Aircraft A320/M-SDE3FGHIRWY/LB1

Departure

Time 2026-05-04 21:01
Airport Zadar Airport (LDZD)

Arrival

Time 2026-05-04 22:25
Airport Berlin Brandenburg Airport (EDDB)
Time Latitude Longitude Altitude Speed Heading
2026-05-04 20:39 44.09675 15.35433 279 ft 0 kts 326°
2026-05-04 20:58 44.09696 15.35436 279 ft 5 kts
2026-05-04 20:58 44.09707 15.35463 281 ft 4 kts 76°
2026-05-04 20:58 44.09707 15.35503 279 ft 4 kts 89°
2026-05-04 20:58 44.09716 15.35532 281 ft 4 kts 40°
2026-05-04 20:59 44.09759 15.35537 279 ft 7 kts 355°
2026-05-04 20:59 44.09806 15.35535 279 ft 8 kts 359°
2026-05-04 20:59 44.09861 15.35529 281 ft 7 kts 353°
2026-05-04 20:59 44.09905 15.35542 283 ft 5 kts 36°
2026-05-04 21:00 44.09941 15.35593 283 ft 11 kts 46°
2026-05-04 21:00 44.10006 15.35687 284 ft 14 kts 45°
2026-05-04 21:00 44.10061 15.35713 285 ft 7 kts 316°
2026-05-04 21:00 44.10140 15.35602 284 ft 40 kts 319°
2026-05-04 21:01 44.10524 15.35085 281 ft 110 kts 316°
2026-05-04 21:01 44.11215 15.34159 306 ft 160 kts 318°
2026-05-04 21:01 44.11990 15.33153 964 ft 150 kts 316°
2026-05-04 21:01 44.12741 15.32130 1476 ft 152 kts 315°
2026-05-04 21:02 44.13502 15.31080 1968 ft 155 kts 315°
2026-05-04 21:02 44.14273 15.30007 2427 ft 159 kts 315°
2026-05-04 21:02 44.15070 15.28925 2925 ft 161 kts 314°
2026-05-04 21:02 44.15879 15.27833 3419 ft 162 kts 314°
2026-05-04 21:03 44.16720 15.26683 3712 ft 181 kts 314°
2026-05-04 21:03 44.17700 15.25392 3946 ft 203 kts 318°
2026-05-04 21:03 44.18835 15.24085 4311 ft 221 kts 320°
2026-05-04 21:03 44.20109 15.22699 4631 ft 243 kts 321°
2026-05-04 21:04 44.21504 15.21201 5084 ft 263 kts 321°
2026-05-04 21:04 44.22976 15.19611 5774 ft 271 kts 320°
2026-05-04 21:04 44.24469 15.17963 6592 ft 276 kts 320°
2026-05-04 21:04 44.25983 15.16283 7398 ft 279 kts 322°
2026-05-04 21:05 44.27755 15.15162 8226 ft 285 kts 349°
2026-05-04 21:05 44.29755 15.15104 8992 ft 291 kts
2026-05-04 21:05 44.31790 15.15159 9784 ft 295 kts 359°
2026-05-04 21:05 44.33844 15.15155 10334 ft 307 kts 358°
2026-05-04 21:06 44.36059 15.15110 10566 ft 330 kts 358°
2026-05-04 21:06 44.38424 15.15042 10927 ft 346 kts 358°
2026-05-04 21:06 44.40853 15.14970 11556 ft 352 kts 358°
2026-05-04 21:06 44.43321 15.14903 12220 ft 357 kts 358°
2026-05-04 21:07 44.45824 15.14843 12890 ft 362 kts 358°
2026-05-04 21:07 44.48359 15.14789 13580 ft 366 kts 358°
2026-05-04 21:07 44.50929 15.14734 14242 ft 371 kts 358°
2026-05-04 21:07 44.53520 15.14682 14863 ft 374 kts 359°
2026-05-04 21:08 44.56136 15.14631 15497 ft 377 kts 359°
2026-05-04 21:08 44.58773 15.14580 16118 ft 380 kts 359°
2026-05-04 21:08 44.61433 15.14529 16718 ft 383 kts 359°
2026-05-04 21:08 44.64117 15.14473 17312 ft 387 kts 359°
2026-05-04 21:09 44.66786 15.14414 17906 ft 390 kts 359°
2026-05-04 21:09 44.69511 15.14356 18502 ft 393 kts 359°
2026-05-04 21:09 44.72256 15.14298 19040 ft 395 kts 359°
2026-05-04 21:09 44.75014 15.14238 19572 ft 398 kts 359°
2026-05-04 21:10 44.77788 15.14176 20102 ft 400 kts 359°
2026-05-04 21:10 44.80583 15.14115 20633 ft 402 kts 359°
2026-05-04 21:10 44.83394 15.14056 21164 ft 405 kts 359°
2026-05-04 21:10 44.86221 15.14000 21685 ft 408 kts 358°
2026-05-04 21:11 44.89068 15.13943 22210 ft 411 kts 358°
2026-05-04 21:11 44.91933 15.13887 22727 ft 413 kts 358°
2026-05-04 21:11 44.94814 15.13831 23231 ft 415 kts 358°
2026-05-04 21:11 44.97714 15.13774 23736 ft 417 kts 358°
2026-05-04 21:12 45.00623 15.13712 24153 ft 419 kts 358°
2026-05-04 21:12 45.03509 15.13650 24543 ft 421 kts 358°
2026-05-04 21:12 45.06442 15.13588 24929 ft 423 kts 358°
2026-05-04 21:12 45.09392 15.13521 25297 ft 425 kts 358°
2026-05-04 21:13 45.12361 15.13454 25652 ft 427 kts 358°
2026-05-04 21:13 45.15335 15.13392 26010 ft 429 kts 358°
2026-05-04 21:13 45.18325 15.13671 26369 ft 432 kts
2026-05-04 21:13 45.21312 15.14202 26715 ft 434 kts
2026-05-04 21:14 45.24318 15.14734 27061 ft 436 kts
2026-05-04 21:14 45.27339 15.15267 27398 ft 438 kts
2026-05-04 21:14 45.30367 15.15805 27730 ft 440 kts
2026-05-04 21:14 45.33407 15.16347 28060 ft 441 kts
2026-05-04 21:15 45.36461 15.16893 28385 ft 443 kts
2026-05-04 21:15 45.39528 15.17439 28703 ft 445 kts
2026-05-04 21:15 45.42604 15.17989 29003 ft 447 kts
2026-05-04 21:15 45.45692 15.18541 29303 ft 448 kts
2026-05-04 21:16 45.48796 15.19094 29589 ft 450 kts
2026-05-04 21:16 45.51910 15.19647 29867 ft 452 kts
2026-05-04 21:16 45.55041 15.20208 30139 ft 454 kts
2026-05-04 21:16 45.58177 15.20768 30368 ft 455 kts
2026-05-04 21:17 45.61326 15.21328 30586 ft 456 kts
2026-05-04 21:17 45.64484 15.21889 30796 ft 458 kts
2026-05-04 21:17 45.67650 15.22453 31008 ft 459 kts
2026-05-04 21:17 45.70814 15.23022 31305 ft 458 kts
2026-05-04 21:18 45.73971 15.23597 31606 ft 457 kts
2026-05-04 21:18 45.77126 15.24169 31887 ft 456 kts
2026-05-04 21:18 45.80273 15.24734 32177 ft 456 kts
2026-05-04 21:18 45.83415 15.25302 32467 ft 455 kts
2026-05-04 21:19 45.86552 15.25869 32764 ft 454 kts
2026-05-04 21:19 45.89685 15.26436 33056 ft 454 kts
2026-05-04 21:19 45.92816 15.27004 33346 ft 453 kts
2026-05-04 21:19 45.95900 15.27563 33624 ft 452 kts
2026-05-04 21:20 45.99024 15.28128 33906 ft 452 kts
2026-05-04 21:20 46.02143 15.28694 34167 ft 451 kts
2026-05-04 21:20 46.05257 15.29262 34419 ft 451 kts
2026-05-04 21:20 46.08366 15.29829 34663 ft 450 kts
2026-05-04 21:21 46.11474 15.30395 34895 ft 450 kts
2026-05-04 21:21 46.14576 15.30960 35031 ft 449 kts
2026-05-04 21:21 46.20738 15.32089 35056 ft 445 kts
2026-05-04 21:22 46.26868 15.33222 35049 ft 444 kts
2026-05-04 21:22 46.32999 15.34348 35040 ft 444 kts
2026-05-04 21:23 46.39130 15.35476 35036 ft 444 kts
2026-05-04 21:23 46.45233 15.36606 35033 ft 444 kts
2026-05-04 21:24 46.51366 15.37737 35037 ft 444 kts
2026-05-04 21:24 46.57502 15.38880 35038 ft 445 kts
2026-05-04 21:25 46.63639 15.40016 35035 ft 445 kts
2026-05-04 21:25 46.69778 15.41153 35033 ft 445 kts
2026-05-04 21:26 46.75911 15.42301 35020 ft 445 kts
2026-05-04 21:26 46.82055 15.43452 35012 ft 445 kts
2026-05-04 21:27 46.88194 15.44598 35012 ft 445 kts
2026-05-04 21:27 46.94349 15.45752 35012 ft 445 kts
2026-05-04 21:28 47.00495 15.46920 35009 ft 445 kts
2026-05-04 21:28 47.06640 15.48094 35006 ft 445 kts
2026-05-04 21:29 47.12786 15.49261 35005 ft 445 kts
2026-05-04 21:29 47.18935 15.50416 35007 ft 445 kts
2026-05-04 21:30 47.25041 15.51561 35003 ft 446 kts
2026-05-04 21:30 47.31192 15.52737 34999 ft 446 kts
2026-05-04 21:31 47.40416 15.54513 35004 ft 445 kts
2026-05-04 21:32 47.46564 15.55680 34996 ft 445 kts
2026-05-04 21:32 47.52710 15.56857 34989 ft 446 kts
2026-05-04 21:33 47.58866 15.58047 34989 ft 446 kts
2026-05-04 21:33 47.65025 15.59248 34992 ft 446 kts
2026-05-04 21:34 47.71189 15.60442 34989 ft 447 kts
2026-05-04 21:34 47.77351 15.61630 34973 ft 447 kts
2026-05-04 21:35 47.83524 15.62831 34968 ft 447 kts
2026-05-04 21:35 47.89650 15.64027 34963 ft 447 kts
2026-05-04 21:36 47.95819 15.65226 34961 ft 447 kts
2026-05-04 21:36 48.01975 15.66436 34948 ft 446 kts
2026-05-04 21:37 48.08130 15.67647 34942 ft 446 kts
2026-05-04 21:37 48.14279 15.68859 34932 ft 446 kts
2026-05-04 21:38 48.20430 15.70080 34924 ft 446 kts
2026-05-04 21:38 48.26578 15.71287 34919 ft 446 kts
2026-05-04 21:39 48.32690 15.72503 34917 ft 446 kts
2026-05-04 21:39 48.38844 15.73738 34914 ft 446 kts
2026-05-04 21:40 48.45003 15.74965 34924 ft 446 kts
2026-05-04 21:40 48.51167 15.76184 34923 ft 447 kts
2026-05-04 21:41 48.57324 15.77418 34924 ft 446 kts
2026-05-04 21:41 48.63484 15.78661 34927 ft 446 kts
2026-05-04 21:42 48.69602 15.79887 34929 ft 446 kts
2026-05-04 21:42 48.75755 15.81127 34924 ft 446 kts
2026-05-04 21:43 48.81906 15.82371 34927 ft 446 kts
2026-05-04 21:43 48.88057 15.82485 34933 ft 441 kts 348°
2026-05-04 21:44 48.93902 15.79921 34939 ft 437 kts 337°
2026-05-04 21:44 48.99610 15.76725 34940 ft 437 kts 337°
2026-05-04 21:45 49.05321 15.73533 34944 ft 438 kts 337°
2026-05-04 21:45 49.11031 15.70315 34948 ft 438 kts 337°
2026-05-04 21:46 49.16751 15.67088 34949 ft 438 kts 337°
2026-05-04 21:46 49.22473 15.63870 34949 ft 438 kts 337°
2026-05-04 21:47 49.28195 15.60642 34947 ft 438 kts 336°
2026-05-04 21:47 49.33914 15.57398 34957 ft 438 kts 336°
2026-05-04 21:48 49.39592 15.54176 34953 ft 438 kts 336°
2026-05-04 21:48 49.45309 15.50910 34957 ft 438 kts 336°
2026-05-04 21:49 49.51018 15.47643 34958 ft 438 kts 336°
2026-05-04 21:49 49.55764 15.44927 34953 ft 438 kts 336°
2026-05-04 21:50 49.61471 15.41653 34953 ft 438 kts 336°
2026-05-04 21:50 49.67174 15.38372 34950 ft 437 kts 336°
2026-05-04 21:51 49.72880 15.35083 34949 ft 437 kts 336°
2026-05-04 21:51 49.78579 15.31786 34952 ft 438 kts 336°
2026-05-04 21:52 49.84286 15.28479 34953 ft 438 kts 336°
2026-05-04 21:52 49.89989 15.25149 34957 ft 437 kts 336°
2026-05-04 21:53 49.95683 15.21828 34955 ft 437 kts 336°
2026-05-04 21:53 50.01372 15.18515 34952 ft 437 kts 336°
2026-05-04 21:54 50.07066 15.15190 34953 ft 437 kts 336°
2026-05-04 21:54 50.12751 15.11852 34955 ft 437 kts 336°
2026-05-04 21:55 50.18434 15.08499 34956 ft 437 kts 336°
2026-05-04 21:55 50.24115 15.05150 34954 ft 437 kts 336°
2026-05-04 21:56 50.29800 15.01787 34955 ft 437 kts 335°
2026-05-04 21:56 50.35447 14.98440 34956 ft 437 kts 335°
2026-05-04 21:57 50.41131 14.95055 34957 ft 437 kts 335°
2026-05-04 21:57 50.46813 14.91657 34957 ft 437 kts 335°
2026-05-04 21:58 50.52491 14.88264 34962 ft 437 kts 335°
2026-05-04 21:58 50.58178 14.84863 34961 ft 437 kts 335°
2026-05-04 21:59 50.63852 14.81454 34962 ft 437 kts 335°
2026-05-04 21:59 50.69720 14.78772 34965 ft 441 kts 343°
2026-05-04 22:00 50.75704 14.76584 34964 ft 441 kts 343°
2026-05-04 22:00 50.81687 14.74387 34968 ft 442 kts 343°
2026-05-04 22:01 50.87489 14.72244 34964 ft 442 kts 343°
2026-05-04 22:01 50.90363 14.71180 34852 ft 443 kts 342°
2026-05-04 22:01 50.93385 14.70059 34006 ft 448 kts 342°
2026-05-04 22:01 50.96401 14.68923 33483 ft 443 kts 342°
2026-05-04 22:02 50.99336 14.67773 32950 ft 438 kts 342°
2026-05-04 22:02 51.02279 14.66583 32406 ft 434 kts 341°
2026-05-04 22:02 51.05187 14.65391 31878 ft 430 kts 341°
2026-05-04 22:02 51.08072 14.64207 31361 ft 426 kts 342°
2026-05-04 22:03 51.10932 14.63039 30844 ft 423 kts 342°
2026-05-04 22:03 51.13769 14.61885 30335 ft 419 kts 342°
2026-05-04 22:03 51.16586 14.60745 29792 ft 416 kts 342°
2026-05-04 22:03 51.19380 14.59619 29294 ft 412 kts 342°
2026-05-04 22:04 51.22141 14.58507 28804 ft 407 kts 342°
2026-05-04 22:04 51.24874 14.57405 28334 ft 402 kts 342°
2026-05-04 22:04 51.27571 14.56313 27867 ft 398 kts 342°
2026-05-04 22:04 51.30246 14.55224 27411 ft 394 kts 342°
2026-05-04 22:05 51.32894 14.54141 26959 ft 391 kts 342°
2026-05-04 22:05 51.35507 14.53008 26532 ft 386 kts 337°
2026-05-04 22:05 51.37935 14.51311 26109 ft 378 kts 327°
2026-05-04 22:05 51.40095 14.48994 25685 ft 370 kts 317°
2026-05-04 22:06 51.41992 14.46257 25272 ft 365 kts 314°
2026-05-04 22:06 51.43854 14.43503 24852 ft 363 kts 314°
2026-05-04 22:06 51.45704 14.40776 24432 ft 360 kts 314°
2026-05-04 22:06 51.47545 14.38064 24012 ft 358 kts 314°
2026-05-04 22:07 51.49376 14.35367 23585 ft 357 kts 314°
2026-05-04 22:07 51.51173 14.32717 23107 ft 355 kts 314°
2026-05-04 22:07 51.52987 14.30040 22680 ft 352 kts 314°
2026-05-04 22:07 51.54780 14.27387 22241 ft 349 kts 313°
2026-05-04 22:08 51.56559 14.24745 21825 ft 347 kts 313°
2026-05-04 22:08 51.58323 14.22121 21405 ft 345 kts 313°
2026-05-04 22:08 51.60078 14.19504 20989 ft 343 kts 313°
2026-05-04 22:08 51.61823 14.16897 20568 ft 342 kts 313°
2026-05-04 22:09 51.63565 14.14299 20152 ft 341 kts 313°
2026-05-04 22:09 51.65302 14.11710 19733 ft 340 kts 313°
2026-05-04 22:09 51.67012 14.09152 19327 ft 339 kts 313°
2026-05-04 22:09 51.68737 14.06567 18916 ft 339 kts 313°
2026-05-04 22:10 51.70461 14.03978 18502 ft 338 kts 313°
2026-05-04 22:10 51.72181 14.01395 18070 ft 338 kts 313°
2026-05-04 22:10 51.73899 13.98817 17647 ft 336 kts 313°
2026-05-04 22:10 51.75607 13.96254 17241 ft 335 kts 313°
2026-05-04 22:11 51.77309 13.93704 16844 ft 333 kts 313°
2026-05-04 22:11 51.79000 13.91168 16451 ft 331 kts 313°
2026-05-04 22:11 51.80684 13.88637 16056 ft 330 kts 313°
2026-05-04 22:11 51.82356 13.86117 15671 ft 329 kts 313°
2026-05-04 22:12 51.84022 13.83595 15282 ft 328 kts 313°
2026-05-04 22:12 51.85683 13.81076 14887 ft 327 kts 313°
2026-05-04 22:12 51.87339 13.78565 14505 ft 326 kts 313°
2026-05-04 22:12 51.88996 13.76050 14114 ft 326 kts 313°
2026-05-04 22:13 51.90649 13.73542 13718 ft 326 kts 313°
2026-05-04 22:13 51.92302 13.71034 13291 ft 325 kts 313°
2026-05-04 22:13 51.93943 13.68541 12896 ft 323 kts 313°
2026-05-04 22:13 51.95575 13.66059 12502 ft 321 kts 313°
2026-05-04 22:14 51.97200 13.63583 12111 ft 319 kts 313°
2026-05-04 22:14 51.98811 13.61120 11708 ft 318 kts 313°
2026-05-04 22:14 52.00420 13.58661 11306 ft 317 kts 313°
2026-05-04 22:14 52.01988 13.56175 10897 ft 314 kts 307°
2026-05-04 22:15 52.03318 13.53394 10490 ft 311 kts 303°
2026-05-04 22:15 52.04605 13.50630 10115 ft 310 kts 304°
2026-05-04 22:15 52.05878 13.47905 9951 ft 294 kts 304°
2026-05-04 22:15 52.07095 13.45299 9477 ft 286 kts 303°
2026-05-04 22:16 52.08289 13.42734 8881 ft 282 kts 303°
2026-05-04 22:16 52.09448 13.40242 8598 ft 267 kts 303°
2026-05-04 22:16 52.10535 13.37911 8384 ft 251 kts 303°
2026-05-04 22:16 52.11575 13.35673 7935 ft 246 kts 303°
2026-05-04 22:17 52.12600 13.33457 7440 ft 245 kts 303°
2026-05-04 22:17 52.13619 13.31244 7108 ft 243 kts 303°
2026-05-04 22:17 52.14628 13.29049 6780 ft 241 kts 303°
2026-05-04 22:17 52.15630 13.26873 6441 ft 240 kts 304°
2026-05-04 22:18 52.16631 13.24706 6089 ft 239 kts 304°
2026-05-04 22:18 52.17628 13.22547 5741 ft 237 kts 304°
2026-05-04 22:18 52.18616 13.20404 5408 ft 236 kts 304°
2026-05-04 22:18 52.19589 13.18288 5117 ft 235 kts 304°
2026-05-04 22:19 52.20737 13.16398 4803 ft 237 kts 323°
2026-05-04 22:19 52.22103 13.14894 4515 ft 237 kts 324°
2026-05-04 22:19 52.23553 13.13682 4342 ft 233 kts 341°
2026-05-04 22:19 52.25137 13.13304 4219 ft 230 kts
2026-05-04 22:20 52.26688 13.13773 4101 ft 224 kts 19°
2026-05-04 22:20 52.28053 13.15016 3997 ft 222 kts 39°
2026-05-04 22:20 52.29075 13.16843 3998 ft 222 kts 57°
2026-05-04 22:20 52.29721 13.19066 3895 ft 213 kts 69°
2026-05-04 22:21 52.30255 13.21293 3637 ft 209 kts 69°
2026-05-04 22:21 52.30781 13.23479 3365 ft 205 kts 68°
2026-05-04 22:21 52.31298 13.25631 3091 ft 202 kts 68°
2026-05-04 22:21 52.31806 13.27745 2822 ft 198 kts 68°
2026-05-04 22:22 52.32307 13.29830 2576 ft 195 kts 68°
2026-05-04 22:22 52.32798 13.31877 2324 ft 192 kts 68°
2026-05-04 22:22 52.33275 13.33870 2073 ft 185 kts 67°
2026-05-04 22:22 52.33739 13.35809 1826 ft 181 kts 67°
2026-05-04 22:23 52.34193 13.37706 1583 ft 177 kts 67°
2026-05-04 22:23 52.34624 13.39510 1372 ft 162 kts 66°
2026-05-04 22:23 52.35018 13.41165 1137 ft 151 kts 66°
2026-05-04 22:23 52.35394 13.42736 945 ft 146 kts 66°
2026-05-04 22:24 52.35757 13.44255 749 ft 142 kts 67°
2026-05-04 22:24 52.36111 13.45736 551 ft 138 kts 68°
2026-05-04 22:24 52.36455 13.47186 372 ft 136 kts 68°
2026-05-04 22:24 52.36793 13.48614 195 ft 134 kts 68°
2026-05-04 22:25 52.37111 13.49938 158 ft 105 kts 70°
2026-05-04 22:25 52.37265 13.50593 156 ft 29 kts 68°
2026-05-04 22:25 52.37305 13.50898 158 ft 27 kts 89°
2026-05-04 22:25 52.37291 13.51165 161 ft 18 kts 98°
2026-05-04 22:26 52.37260 13.51363 161 ft 19 kts 122°
2026-05-04 22:26 52.37159 13.51443 158 ft 14 kts 158°
2026-05-04 22:26 52.37070 13.51484 157 ft 13 kts 191°
2026-05-04 22:26 52.37022 13.51373 156 ft 12 kts 250°
2026-05-04 22:27 52.36992 13.51247 155 ft 11 kts 249°
2026-05-04 22:27 52.36965 13.51136 155 ft 10 kts 248°
2026-05-04 22:27 52.36940 13.51038 155 ft 9 kts 249°
2026-05-04 22:27 52.36920 13.50945 155 ft 11 kts 249°
2026-05-04 22:28 52.36888 13.50811 155 ft 13 kts 249°
2026-05-04 22:28 52.36857 13.50680 155 ft 10 kts 248°
2026-05-04 22:28 52.36834 13.50646 156 ft 3 kts 179°
2026-05-04 22:28 52.36800 13.50664 155 ft 7 kts 158°
2026-05-04 22:29 52.36775 13.50680 155 ft 1 kts 159°
2026-05-04 22:29 52.36773 13.50682 155 ft 1 kts 159°
2026-05-04 22:29 52.36771 13.50683 155 ft 0 kts 159°